Simultaneous Nadir Overpasses (SNOs) Predictions

Prediction of SNOs between LANDSAT-8 and METOP-A Satellite Orbit:

Table of predicted SNOs for the next 14.0 days since TLE Epoch: 6/4/2016
Index Date (LANDSAT-8) Time (LANDSAT-8) Lat,Lon (LANDSAT-8) SZA (LANDSAT-8 ) Date (METOP-A) Time (METOP-A) Lat,Lon (METOP-A) SZA (METOP-A ) Distance(km) Time Diff (sec)
1 06/06/2016 00:06:05 81.16,-140.92 60.76 06/06/2016 00:05:15 81.16,-140.94 60.73 0.29 50
2 06/06/2016 00:55:31 -81.18, 27.02 119.21 06/06/2016 00:55:54 -81.18, 26.94 119.21 1.34 23
3 06/08/2016 19:40:19 81.18, -74.24 60.52 06/08/2016 19:39:35 81.18, -74.08 60.52 2.84 44
4 06/08/2016 20:29:46 -81.17, 93.36 119.49 06/08/2016 20:30:15 -81.18, 93.46 119.46 1.85 29
5 06/11/2016 15:14:35 81.17, -7.98 60.27 06/11/2016 15:13:58 81.16, -8.00 60.26 0.35 37
6
